sat.trackr.live / text

‹ back to catalog

BEIDOU-3 M7 (C27)

NORAD 43107 · 2018-003A

PAYLOAD ACTIVE UNKNOWN

§ Identity

Operator
Country
PRC
Launch date
2018-01-11
Launch site
XICLF
Launch vehicle
Mass (kg)
RCS (m²)

Purposes: nav

External: N2YO · Heavens-Above · Gunter

§ Orbital elements

Epoch: 2026-09-18T18:45:31.594752Z

Period
773.24 min
Inclination
54.2411°
Eccentricity
0.0003125
Mean motion
1.86228337 rev/d
Perigee alt
21,519.6 km
Apogee alt
21,537.0 km
Semi-major
27,906.5 km
B*
0.0000e+0
RAAN
299.0431°
Arg perigee
103.1957°
Mean anomaly
256.8981°
Rev number
5,909

§ Raw data

BEIDOU-3 M7 (C27)1 43107U 18003A   26261.78161568 -.00000035  00000+0  00000+0 0  99932 43107  54.2411 299.0431 0003125 103.1957 256.8981  1.86228337 59091

JSON: /api/v1/satellites/43107 · /tle

For live sub-satellite position, see the globe view (requires WebGL).

§ Visibility from observer

Set your observer location to see the next 7 days of passes ≥ 10°. The values pass through the URL so the page stays shareable.

No JS? Fill the form by hand. The geolocation button needs JavaScript.